{"data":{"norad_id":64189,"intl_designator":"2025-113V","name":"STARLINK-33872","alt_names":[],"object_type":"PAYLOAD","status":"ACTIVE","operator":null,"country":"US","launch_date":"2025-05-28","launch_site_code":"AFETR","launch_vehicle":null,"mission":null,"orbit_class":"UNKNOWN","rcs_meters":null,"size_class":null,"mass_kg":null,"dimensions":null,"purposes":["comms"],"wikipedia_slug":null,"has_3d_model":false,"image_url":null,"decayed_at":null,"tle_current":{"epoch":"2026-05-25T02:54:33.879744Z","epoch_age_seconds":67780,"freshness":"FRESH","line1":"1 64189U 25113V   26145.12122546  .00025941  00000+0  77627-3 0  9993","line2":"2 64189  53.1595  94.9389 0001191  82.7356 277.3782 15.34398572 56748","mean_motion":15.34398572,"eccentricity":0.0001191,"inclination_deg":53.1595,"raan_deg":94.9389,"arg_perigee_deg":82.7356,"mean_anomaly_deg":277.3782,"bstar":0.00077627,"rev_number":5674,"period_min":93.847845421483,"perigee_km":461.89273994923,"apogee_km":463.52222910544,"semimajor_km":6840.8444845273,"source":"CELESTRAK","updated_at":"2026-05-25T13:38:20.313861Z"}}}